ORB101N FAOR-FALE

Flight info

Callsign ORB101N
Flight time N/A
Altitude 35000
Route APDAK1B APDAK UQ48 APMAT APMAT1B
Aircraft A20N/M-SDE2E3FGHIRWXY/LB1

Departure

Time 2026-05-01 09:28
Airport O.R. Tambo International Airport (FAOR)

Arrival

Time N/A
Airport King Shaka International Airport (FALE)
Time Latitude Longitude Altitude Speed Heading
2026-05-01 09:10 -26.13670 28.22983 5546 ft 0 kts
2026-05-01 09:18 -26.13675 28.22982 5546 ft 1 kts
2026-05-01 09:18 -26.13691 28.22981 5550 ft 1 kts
2026-05-01 09:19 -26.13707 28.22979 5548 ft 1 kts 13°
2026-05-01 09:19 -26.13714 28.22977 5551 ft 1 kts 21°
2026-05-01 09:19 -26.13725 28.22971 5549 ft 2 kts 37°
2026-05-01 09:20 -26.13740 28.22955 5552 ft 0 kts 50°
2026-05-01 09:21 -26.13739 28.22955 5552 ft 0 kts 50°
2026-05-01 09:21 -26.13735 28.23003 5548 ft 9 kts 93°
2026-05-01 09:22 -26.13781 28.23113 5549 ft 9 kts 132°
2026-05-01 09:22 -26.13797 28.23226 5548 ft 10 kts 96°
2026-05-01 09:23 -26.13802 28.23271 5547 ft 10 kts 99°
2026-05-01 09:23 -26.13926 28.23293 5548 ft 10 kts 195°
2026-05-01 09:24 -26.14058 28.23252 5549 ft 10 kts 195°
2026-05-01 09:24 -26.14124 28.23231 5551 ft 10 kts 195°
2026-05-01 09:24 -26.14232 28.23200 5554 ft 5 kts 191°
2026-05-01 09:25 -26.14324 28.23217 5563 ft 8 kts 160°
2026-05-01 09:25 -26.14449 28.23253 5564 ft 10 kts 166°
2026-05-01 09:26 -26.14515 28.23271 5564 ft 10 kts 166°
2026-05-01 09:26 -26.14626 28.23333 5563 ft 5 kts 93°
2026-05-01 09:26 -26.14614 28.23384 5562 ft 9 kts 76°
2026-05-01 09:27 -26.14566 28.23462 5561 ft 4 kts 13°
2026-05-01 09:27 -26.14465 28.23493 5560 ft 43 kts 15°
2026-05-01 09:27 -26.13960 28.23647 5562 ft 106 kts 16°
2026-05-01 09:28 -26.13069 28.23923 5543 ft 156 kts 14°
2026-05-01 09:28 -26.12011 28.24332 6007 ft 162 kts 18°
2026-05-01 09:28 -26.11009 28.24863 6719 ft 160 kts 17°
2026-05-01 09:28 -26.10033 28.25276 7017 ft 176 kts 11°
2026-05-01 09:29 -26.07413 28.26018 7712 ft 212 kts
2026-05-01 09:29 -26.05851 28.26308 8042 ft 238 kts
2026-05-01 09:30 -26.02680 28.28069 8737 ft 302 kts 47°
2026-05-01 09:30 -26.01744 28.29856 9112 ft 315 kts 68°
2026-05-01 09:30 -26.01830 28.34372 9261 ft 319 kts 116°
2026-05-01 09:31 -26.02927 28.36463 9254 ft 317 kts 127°
2026-05-01 09:31 -26.04147 28.38531 9260 ft 317 kts 124°
2026-05-01 09:31 -26.06176 28.42901 9254 ft 318 kts 115°
2026-05-01 09:32 -26.07033 28.45180 9237 ft 317 kts 114°
2026-05-01 09:32 -26.08638 28.49750 9236 ft 318 kts 112°
2026-05-01 09:32 -26.09428 28.52029 9235 ft 318 kts 112°
2026-05-01 09:33 -26.10226 28.54329 9241 ft 321 kts 112°
2026-05-01 09:33 -26.11056 28.56644 9238 ft 318 kts 117°
2026-05-01 09:33 -26.13739 28.60415 9237 ft 312 kts 140°
2026-05-01 09:34 -26.15304 28.62062 9235 ft 312 kts 140°
2026-05-01 09:34 -26.16875 28.63733 9231 ft 311 kts 140°
2026-05-01 09:34 -26.19967 28.67039 9231 ft 313 kts 140°
2026-05-01 09:35 -26.21538 28.68720 9229 ft 313 kts 140°
2026-05-01 09:35 -26.24675 28.72078 9226 ft 312 kts 140°
2026-05-01 09:35 -26.26225 28.73738 9220 ft 311 kts 139°
2026-05-01 09:36 -26.27787 28.75412 9221 ft 311 kts 139°
2026-05-01 09:36 -26.29348 28.77087 9220 ft 312 kts 139°
2026-05-01 09:36 -26.30915 28.78767 9215 ft 311 kts 139°
2026-05-01 09:36 -26.32477 28.80441 9213 ft 311 kts 139°
2026-05-01 09:37 -26.34032 28.82108 9213 ft 311 kts 139°
2026-05-01 09:37 -26.37134 28.85438 9215 ft 310 kts 139°
2026-05-01 09:37 -26.38700 28.87119 9380 ft 314 kts 139°
2026-05-01 09:38 -26.41868 28.90529 10849 ft 329 kts 139°
2026-05-01 09:38 -26.43593 28.92380 11163 ft 354 kts 139°
2026-05-01 09:38 -26.45408 28.94328 11561 ft 373 kts 139°
2026-05-01 09:39 -26.49218 28.98438 13040 ft 388 kts 138°
2026-05-01 09:39 -26.51178 29.00554 13782 ft 395 kts 138°
2026-05-01 09:39 -26.53179 29.02714 14500 ft 400 kts 138°
2026-05-01 09:40 -26.55164 29.04859 15248 ft 403 kts 139°
2026-05-01 09:40 -26.59192 29.09289 16663 ft 410 kts 139°
2026-05-01 09:40 -26.61228 29.11553 17331 ft 414 kts 139°
2026-05-01 09:41 -26.63276 29.13830 17993 ft 418 kts 139°
2026-05-01 09:41 -26.67464 29.18477 19138 ft 425 kts 139°
2026-05-01 09:41 -26.69564 29.20806 19653 ft 430 kts 139°
2026-05-01 09:42 -26.71700 29.23174 20194 ft 434 kts 139°
2026-05-01 09:42 -26.73838 29.25547 20703 ft 438 kts 139°
2026-05-01 09:42 -26.78223 29.30418 21733 ft 447 kts 139°
2026-05-01 09:43 -26.82691 29.35388 22764 ft 456 kts 139°
2026-05-01 09:43 -26.84917 29.37866 23274 ft 460 kts 138°
2026-05-01 09:43 -26.87214 29.40425 23774 ft 465 kts 138°
2026-05-01 09:44 -26.89389 29.42849 24166 ft 469 kts 138°
2026-05-01 09:44 -26.91111 29.44719 24288 ft 462 kts 142°
2026-05-01 09:44 -26.93680 29.46942 24467 ft 467 kts 150°
2026-05-01 09:45 -26.96378 29.49022 24854 ft 472 kts 150°
2026-05-01 09:45 -27.01808 29.53262 25611 ft 482 kts 149°
2026-05-01 09:45 -27.04582 29.55434 25985 ft 487 kts 149°
2026-05-01 09:46 -27.07350 29.57603 26357 ft 491 kts 149°
2026-05-01 09:46 -27.10184 29.59822 26709 ft 495 kts 149°
2026-05-01 09:46 -27.12987 29.62018 27072 ft 500 kts 149°
2026-05-01 09:46 -27.15859 29.64269 27428 ft 504 kts 149°
2026-05-01 09:47 -27.18755 29.66540 27756 ft 508 kts 149°
2026-05-01 09:47 -27.21671 29.68829 28083 ft 512 kts 149°
2026-05-01 09:47 -27.24570 29.71106 28393 ft 517 kts 149°
2026-05-01 09:47 -27.27533 29.73434 28735 ft 520 kts 150°
2026-05-01 09:48 -27.30515 29.75778 29068 ft 524 kts 149°
2026-05-01 09:48 -27.33520 29.78143 29370 ft 528 kts 149°
2026-05-01 09:48 -27.36551 29.80530 29717 ft 532 kts 149°
2026-05-01 09:48 -27.39594 29.82929 30035 ft 536 kts 149°
2026-05-01 09:49 -27.42660 29.85346 30305 ft 540 kts 149°
2026-05-01 09:49 -27.45745 29.87781 30609 ft 542 kts 149°
2026-05-01 09:49 -27.48818 29.90207 30892 ft 545 kts 149°
2026-05-01 09:49 -27.51939 29.92673 31170 ft 548 kts 149°
2026-05-01 09:50 -27.55065 29.95146 31504 ft 550 kts 149°
2026-05-01 09:50 -27.58173 29.97607 31870 ft 550 kts 149°
2026-05-01 09:50 -27.61316 30.00096 32233 ft 551 kts 149°
2026-05-01 09:50 -27.64464 30.02592 32583 ft 552 kts 149°
2026-05-01 09:51 -27.67577 30.05059 32928 ft 552 kts 149°
2026-05-01 09:51 -27.70731 30.07565 33281 ft 553 kts 149°
2026-05-01 09:51 -27.73884 30.10079 33622 ft 554 kts 149°
2026-05-01 09:51 -27.77042 30.12599 33962 ft 555 kts 149°
2026-05-01 09:52 -27.80155 30.15086 34261 ft 555 kts 149°
2026-05-01 09:52 -27.83264 30.17571 34608 ft 554 kts 149°
2026-05-01 09:52 -27.86438 30.20110 34918 ft 554 kts 149°
2026-05-01 09:52 -27.89629 30.22661 35011 ft 559 kts 149°
2026-05-01 09:53 -27.96020 30.27774 35036 ft 572 kts 149°
2026-05-01 09:53 -28.02571 30.33028 35036 ft 580 kts 149°
2026-05-01 09:54 -28.09165 30.38327 34990 ft 586 kts 149°
2026-05-01 09:54 -28.15757 30.43638 34784 ft 572 kts 149°
2026-05-01 09:55 -28.18993 30.46247 34244 ft 569 kts 149°
2026-05-01 09:55 -28.22229 30.48855 33419 ft 569 kts 149°
2026-05-01 09:55 -28.25458 30.51457 32596 ft 568 kts 149°
2026-05-01 09:55 -28.28633 30.54019 31820 ft 565 kts 149°
2026-05-01 09:56 -28.31830 30.56601 31039 ft 563 kts 149°
2026-05-01 09:56 -28.35018 30.59179 30266 ft 560 kts 149°
2026-05-01 09:56 -28.38188 30.61748 29658 ft 553 kts 149°
2026-05-01 09:56 -28.41277 30.64257 29445 ft 537 kts 149°
2026-05-01 09:57 -28.44246 30.66671 29266 ft 523 kts 149°
2026-05-01 09:57 -28.47172 30.69050 28950 ft 512 kts 149°
2026-05-01 09:57 -28.50064 30.71397 28509 ft 506 kts 149°
2026-05-01 09:57 -28.52917 30.73712 27918 ft 502 kts 149°
2026-05-01 09:58 -28.55746 30.76011 27439 ft 497 kts 149°
2026-05-01 09:58 -28.58537 30.78283 26923 ft 492 kts 149°
2026-05-01 09:58 -28.61314 30.80545 26456 ft 486 kts 149°
2026-05-01 09:58 -28.64025 30.82753 25949 ft 483 kts 149°
2026-05-01 09:59 -28.66750 30.84976 25532 ft 477 kts 149°
2026-05-01 09:59 -28.69451 30.87180 25075 ft 474 kts 149°
2026-05-01 09:59 -28.72130 30.89368 24582 ft 471 kts 149°
2026-05-01 09:59 -28.74782 30.91536 24165 ft 466 kts 149°
2026-05-01 10:00 -28.77361 30.93647 23797 ft 459 kts 149°
2026-05-01 10:00 -28.79949 30.95757 23395 ft 452 kts 149°
2026-05-01 10:00 -28.82532 30.97751 22949 ft 444 kts 151°
2026-05-01 10:00 -28.85106 30.99667 22513 ft 439 kts 152°
2026-05-01 10:01 -28.87654 31.01557 22079 ft 434 kts 151°
2026-05-01 10:01 -28.90139 31.03412 21660 ft 429 kts 151°
2026-05-01 10:01 -28.92630 31.05285 21240 ft 425 kts 151°
2026-05-01 10:01 -28.95083 31.07136 20823 ft 421 kts 150°
2026-05-01 10:02 -28.97505 31.08968 20417 ft 416 kts 150°
2026-05-01 10:02 -28.99917 31.10795 20002 ft 412 kts 150°
2026-05-01 10:02 -29.02295 31.12598 19603 ft 408 kts 150°
2026-05-01 10:02 -29.04654 31.14387 19221 ft 405 kts 150°
2026-05-01 10:03 -29.06997 31.16165 18828 ft 403 kts 150°
2026-05-01 10:03 -29.09292 31.17906 18451 ft 401 kts 150°
2026-05-01 10:03 -29.11575 31.19639 18103 ft 397 kts 149°
2026-05-01 10:03 -29.13861 31.21378 17819 ft 389 kts 150°
2026-05-01 10:04 -29.16080 31.23109 17527 ft 384 kts 143°
2026-05-01 10:04 -29.17844 31.25368 17251 ft 380 kts 120°
2026-05-01 10:04 -29.18826 31.28120 16964 ft 369 kts 97°
2026-05-01 10:04 -29.18986 31.30025 16781 ft 357 kts 82°
2026-05-01 10:05 -29.18499 31.32698 16504 ft 333 kts 57°
2026-05-01 10:05 -29.17263 31.34803 16234 ft 306 kts 32°
2026-05-01 10:05 -29.15551 31.36030 15955 ft 277 kts
2026-05-01 10:05 -29.13752 31.36230 15673 ft 249 kts 340°
2026-05-01 10:06 -29.12293 31.35480 15454 ft 225 kts 314°
2026-05-01 10:06 -29.11302 31.34109 15040 ft 223 kts 303°
2026-05-01 10:06 -29.10392 31.32653 14619 ft 226 kts 303°
2026-05-01 10:06 -29.09470 31.31180 14199 ft 228 kts 303°
2026-05-01 10:07 -29.08532 31.29704 13776 ft 230 kts 303°
2026-05-01 10:07 -29.07588 31.28238 13322 ft 233 kts 304°
2026-05-01 10:07 -29.06624 31.26733 12855 ft 236 kts 304°
2026-05-01 10:07 -29.05660 31.25211 12402 ft 238 kts 304°
2026-05-01 10:08 -29.03699 31.22081 11295 ft 247 kts 304°
2026-05-01 10:08 -29.02693 31.20459 10699 ft 252 kts 304°
2026-05-01 10:08 -29.01689 31.18814 10114 ft 257 kts 304°
2026-05-01 10:09 -29.00664 31.17118 9488 ft 261 kts 304°
2026-05-01 10:09 -28.99624 31.15395 8884 ft 264 kts 304°
2026-05-01 10:09 -28.98573 31.13665 8377 ft 264 kts 304°
2026-05-01 10:09 -28.97538 31.11963 7894 ft 264 kts 304°
2026-05-01 10:10 -28.96487 31.10237 7414 ft 264 kts 304°
2026-05-01 10:10 -28.95433 31.08506 6925 ft 264 kts 304°
2026-05-01 10:10 -28.93364 31.05091 5983 ft 266 kts 304°
2026-05-01 10:11 -28.92312 31.03331 5538 ft 263 kts 299°
2026-05-01 10:11 -28.91815 31.01419 5333 ft 249 kts 271°
2026-05-01 10:11 -28.92177 30.99526 5346 ft 257 kts 244°
2026-05-01 10:11 -28.93360 30.97913 5363 ft 273 kts 217°
2026-05-01 10:12 -28.95101 30.97093 5341 ft 275 kts 189°
2026-05-01 10:12 -28.97010 30.97289 5356 ft 281 kts 162°
2026-05-01 10:12 -28.99902 30.99990 5349 ft 262 kts 130°
2026-05-01 10:13 -29.01070 31.01614 5332 ft 259 kts 131°
2026-05-01 10:13 -29.02287 31.03171 5331 ft 264 kts 134°
2026-05-01 10:13 -29.03550 31.04637 5340 ft 263 kts 136°
2026-05-01 10:14 -29.06201 31.07496 5340 ft 262 kts 139°
2026-05-01 10:14 -29.07544 31.08909 5332 ft 262 kts 139°
2026-05-01 10:14 -29.08879 31.10314 5326 ft 260 kts 139°
2026-05-01 10:14 -29.10190 31.11696 5331 ft 258 kts 138°
2026-05-01 10:15 -29.11525 31.13104 5324 ft 263 kts 138°
2026-05-01 10:15 -29.12873 31.14532 5336 ft 261 kts 138°
2026-05-01 10:15 -29.14203 31.15942 5330 ft 260 kts 139°
2026-05-01 10:15 -29.15524 31.17341 5336 ft 263 kts 139°
2026-05-01 10:16 -29.16850 31.18745 5333 ft 260 kts 138°
2026-05-01 10:16 -29.18169 31.20141 5336 ft 260 kts 138°
2026-05-01 10:16 -29.20834 31.22968 5331 ft 263 kts 138°
2026-05-01 10:17 -29.22183 31.24402 5330 ft 261 kts 139°
2026-05-01 10:17 -29.24713 31.27090 5315 ft 236 kts 139°
2026-05-01 10:17 -29.25888 31.28339 5303 ft 222 kts 139°
2026-05-01 10:18 -29.28003 31.30591 5313 ft 196 kts 139°
2026-05-01 10:18 -29.29031 31.31681 5404 ft 204 kts 139°
2026-05-01 10:18 -29.30066 31.32775 5383 ft 196 kts 139°
2026-05-01 10:19 -29.31018 31.33793 5355 ft 178 kts 140°
2026-05-01 10:19 -29.31872 31.34707 5322 ft 162 kts 140°
2026-05-01 10:19 -29.32684 31.35514 5264 ft 150 kts 155°
2026-05-01 10:20 -29.34476 31.35117 5165 ft 134 kts 216°
2026-05-01 10:20 -29.35256 31.34495 5132 ft 136 kts 218°
2026-05-01 10:20 -29.36024 31.33851 4921 ft 139 kts 219°
2026-05-01 10:20 -29.36802 31.33181 4709 ft 136 kts 219°
2026-05-01 10:21 -29.37539 31.32539 4532 ft 131 kts 219°
2026-05-01 10:21 -29.38981 31.31275 4255 ft 131 kts 218°
2026-05-01 10:21 -29.39691 31.30647 4134 ft 131 kts 218°